Weather History for Vicksburg, MS

Change the Weather History Date:

Friday, March 1, 2013

  Actual Average Record
Temperature  
Mean Temperature 39 °F 54 °F  
Max Temperature 48 °F 64 °F 83 °F (2012)
Min Temperature 30 °F 43 °F 22 °F (1986)
Degree Days  
Heating Degree Days 26 12  
Month to date heating degree days 26 12  
Since 1 July heating degree days 1796 1988  
Cooling Degree Days 0 0  
Month to date cooling degree days 0 0  
Year to date cooling degree days 18 9  
Moisture  
Dew Point 30 °F    
Average Humidity 71    
Maximum Humidity 92    
Minimum Humidity 49    
Precipitation  
Precipitation 0.00 in 0.19 in 1.95 in (1991)
Month to date precipitation 0.00 0.19  
Year to date precipitation 22.83 10.53  
Sea Level Pressure  
Sea Level Pressure 30.20 in    
Wind  
Wind Speed 7 mph (North)    
Max Wind Speed 15 mph    
Max Gust Speed 21 mph    
Visibility 10 miles    
Events      
T = Trace of Precipitation, MM = Missing Value Source: NWS Daily Summary

Daily Weather History Graph

Daily Weather History Graph

Search for Another Location

Airport:

Trip Planner

Search our weather history database for the weather conditions in past years. The results will help you decide how hot, cold, wet, or windy it might be!

Date:

Astronomy

Mar. 01, 2013 Rise Set
Actual Time 6:31 AM CST 6:01 PM CST
Civil Twilight 6:06 AM CST 6:26 PM CST
Nautical Twilight 5:38 AM CST 6:54 PM CST
Astronomical Twilight 5:09 AM CST 7:23 PM CST
Moon 10:16 PM CST (3/1) 8:35 AM CST (3/1)
Length of Visible Light 12h 19m
Length of Day
11h 30m
Waning Gibbous, 83% of the Moon is Illuminated
Mar 1
Waning Gibbous
Mar 4
Last Quarter
Mar 11
New
Mar 19
First Quarter
Mar 27
Full

Hourly Weather History & Observations

Time (CST) Temp. Windchill Dew Point Humidity Pressure Visibility Wind Dir Wind Speed Gust Speed Precip Events Conditions
12:06 AM 37.4 °F 34.9 °F 35.6 °F 93% 30.12 in 10.0 mi North 3.5 mph - N/A   Clear
12:53 AM 37.9 °F 34.4 °F 36.0 °F 93% 30.16 in 10.0 mi NNE 4.6 mph - N/A   Clear
4:53 AM 37.0 °F 33.3 °F 33.1 °F 86% 30.15 in 10.0 mi North 4.6 mph - N/A   Clear
6:53 AM 36.0 °F 30.3 °F 30.9 °F 82% 30.18 in 10.0 mi NNE 6.9 mph - N/A   Clear
8:53 AM 42.1 °F 36.6 °F 32.0 °F 67% 30.22 in 10.0 mi North 9.2 mph - N/A   Clear
9:53 AM 44.1 °F 39.5 °F 30.0 °F 58% 30.23 in 10.0 mi NNE 8.1 mph - N/A   Partly Cloudy
10:53 AM 44.1 °F 39.0 °F 30.0 °F 58% 30.24 in 10.0 mi NW 9.2 mph - N/A   Overcast
11:53 AM 46.0 °F 40.6 °F 30.9 °F 56% 30.22 in 10.0 mi NW 11.5 mph - N/A   Overcast
12:53 PM 44.1 °F 38.1 °F 28.9 °F 55% 30.21 in 10.0 mi NW 11.5 mph - N/A   Overcast
1:53 PM 46.9 °F - 28.9 °F 50% 30.19 in 10.0 mi WNW 12.7 mph 17.3 mph N/A   Overcast
2:53 PM 46.0 °F 40.2 °F 28.9 °F 51% 30.18 in 10.0 mi WNW 12.7 mph - N/A   Scattered Clouds
3:53 PM 45.0 °F 40.6 °F 28.0 °F 52% 30.17 in 10.0 mi North 8.1 mph - N/A   Scattered Clouds
4:53 PM 45.0 °F 40.6 °F 28.0 °F 52% 30.19 in 10.0 mi North 8.1 mph - N/A   Overcast
5:53 PM 41.0 °F 34.7 °F 28.0 °F 60% 30.20 in 10.0 mi North 10.4 mph - N/A   Clear
6:53 PM 39.0 °F 34.0 °F 28.0 °F 65% 30.21 in 10.0 mi NNE 6.9 mph - N/A   Clear
7:53 PM 37.9 °F 34.4 °F 28.0 °F 68% 30.22 in 10.0 mi NE 4.6 mph - N/A   Clear
8:53 PM 37.0 °F 33.3 °F 28.0 °F 70% 30.23 in 10.0 mi NE 4.6 mph - N/A   Clear
9:53 PM 34.0 °F - 28.0 °F 79% 30.24 in 10.0 mi Calm Calm - N/A   Clear
10:53 PM 30.9 °F - 27.0 °F 85% 30.22 in 10.0 mi Calm Calm - N/A   Partly Cloudy
11:53 PM 33.1 °F - 30.0 °F 89% 30.22 in 10.0 mi Calm Calm - N/A   Overcast